SCP
-0 -0 -0 0 0 0 -0 -0 -0 0 0 0 0 0 0 0 0 0 0 0 0 0 0 0 0 0 0 0 0 0 0 0 0 0 0 0 0 0 0 0 0 0 0
-0 -0 0 0 0 0 0 0 0 0 0 0 0 0 0 0 0 0 0 0 0 0 0 0 0 -0 -0 -0 0 0 0 0 0 0 0 0 0 0 0 0 0 0 0
-0 -0 0 0 0 0 -0 -0 0 0 0 0 0 0 0 0 0 0 0 0 0 0 0 0 -0 -0 -0 0 0 0 0 0 0 0 0 0 0 0 0 0 0 0 0
-0 -0 0 -0 -0 -0 0 0 0 0 0 0 0 0 0 0 0 0 0 0 0 0 0 0 -0 -0 0 0 0 0 0 0 0 0 0 0 0 0 0 0 0 0 0
0 0 -0 0 0 0 0 0 0 0 0 0 0 0 0 0 0 0 0 0 0 0 0 -0 -0 -0 0 0 0 0 0 0 0 0 0 0 0 0 0 0 0 0 0
0 0 0 0 0 0 0 0 0 0 0 0 0 0 0 0 0 0 0 0 0 0 0 -0 -0 0 0 0 0 0 0 0 0 0 0 0 0 0 0 0 0 0 0
0 0 0 0 0 0 0 0 0 0 0 0 0 0 0 0 0 0 0 0 0 0 0 0 0 0 0 0 0 0 0 0 0 0 0 0 0 0 0 0 0 0 0
0 0 0 0 0 0 0 0 0 0 0 0 0 0 0 0 0 0 0 0 0 0 0 0 0 0 0 0 0 0 0 0 0 0 0 0 0 0 0 0 0 0 0
0 -0 0 0 0 0 0 0 0 0 0 0 0 0 0 0 0 0 0 0 0 0 0 0 0 0 0 0 0 0 0 0 0 0 0 0 0 0 0 0 0 0 0
0 0 0 0 0 0 0 0 0 0 0 0 0 0 0 0 0 0 0 0 0 0 0 0 0 0 0 0 0 0 0 0 0 0 0 0 0 0 0 0 0 0 0
0 0 0 0 0 0 0 0 0 0 0 0 0 0 0 0 0 0 0 0 0 0 0 0 0 0 0 0 0 0 0 0 0 0 0 0 0 0 0 0 0 0 0
0 0 0 1 1 1 1 0 0 1 0 0 1 0 0 0 0 0 0 0 0 0 0 0 0 0 0 0 0 0 0 0 0 0 0 0 0 0 0 0 0 0 0
0 0 0 0 1 1 1 1 1 1 1 1 1 1 0 0 0 0 0 0 0 0 0 0 0 0 0 0 0 0 0 0 0 0 0 0 0 0 0 0 0 0 0
0 0 0 0 0 0 0 0 1 1 1 1 1 1 0 0 0 0 0 0 0 0 0 0 0 0 0 0 0 0 0 0 0 0 0 0 0 0 0 0 0 0 0
0 0 0 0 0 0 0 0 0 0 1 2 1 0 0 0 0 0 0 0 0 0 0 0 0 0 0 0 0 0 0 0 0 0 0 0 0 0 0 0 0 0 0
0 0 0 0 0 0 0 0 0 0 0 0 1 0 0 0 0 0 0 0 0 0 0 0 0 0 0 0 0 0 0 0 0 0 0 0 0 0 0 0 0 0 0
0 0 0 0 0 0 0 0 0 0 0 0 1 1 0 0 0 0 0 0 0 0 0 0 0 0 0 0 0 0 0 0 0 0 0 0 0 0 0 0 0 0 0
0 0 0 0 0 0 0 0 0 0 0 0 0 0 0 0 0 0 0 0 0 0 0 0 0 0 0 0 0 0 0 0 0 0 0 0 0 0 0 0 0 0 0
0 0 0 0 0 0 0 0 0 0 0 0 0 0 0 0 0 0 0 0 0 0 0 0 0 0 0 0 0 0 0 0 0 0 0 0 0 0 0 0 0 0 0
0 0 0 0 0 0 0 0 0 0 0 0 0 0 0 0 0 0 0 0 0 0 0 0 0 0 0 0 0 0 0 0 0 0 0 0 0 0 0 0 0 0 0
0 0 0 0 0 0 0 0 0 0 0 0 0 0 0 0 0 0 0 0 0 0 0 0 0 0 0 0 0 0 0 0 0 0 0 0 0 0 0 0 0 0 0
0 0 0 0 0 0 0 0 0 0 0 0 0 0 0 0 0 0 0 0 0 0 0 0 0 0 0 0 0 0 0 0 0 0 0 0 0 0 0 0 0 0 0
0 0 0 0 0 0 0 0 0 0 0 0 0 0 0 0 0 0 0 0 0 0 0 0 0 0 0 0 0 0 0 0 0 0 0 0 0 0 0 0 0 0 0
0 0 0 0 0 0 0 0 0 0 0 0 0 0 0 0 0 0 0 0 0 0 0 0 0 0 0 0 0 0 0 0 0 0 0 0 0 0 0 0 0 0 0
0 0 0 0 0 0 0 0 0 0 0 0 0 0 0 0 0 0 0 0 0 0 0 0 0 0 0 0 0 0 0 0 0 0 0 0 0 0 0 0 0 0 0
0 0 0 0 0 0 0 0 0 0 0 0 0 0 0 0 0 0 0 0 0 0 0 0 0 0 0 0 0 0 0 0 0 0 0 0 0 0 0 0 0 0 0
Wind_Speed_500mb
19 22 30 33 39 57 60 53 42 44 39 33 42 43 41 39 37 33 28 30 24 20 20 22 18 17 28 16 23 22 22 22 24 15 29 32 25 25 19 15 12 7 8
37 22 40 39 40 60 60 56 49 47 42 39 40 37 40 41 39 31 31 29 26 23 18 20 22 25 17 19 20 24 26 28 29 27 24 27 28 29 30 31 27 18 18
39 32 37 46 45 64 62 56 48 43 39 37 34 34 30 32 30 30 30 27 26 25 20 23 19 17 15 14 17 21 23 30 27 27 23 13 17 21 24 34 34 31 27
23 30 30 35 44 56 59 52 46 40 42 36 33 34 31 25 26 27 25 24 26 23 28 28 29 22 19 15 18 19 19 25 27 27 26 21 16 12 10 16 35 36 35
24 26 22 22 32 43 42 45 44 40 43 34 32 36 34 30 26 22 24 23 20 21 30 29 31 28 27 22 18 19 18 19 28 30 25 24 20 19 18 17 24 27 28
31 28 26 33 41 46 54 48 50 33 34 35 35 35 29 23 21 21 21 20 16 18 28 34 37 31 26 26 23 22 22 22 23 26 29 24 27 24 21 24 22 22 17
38 32 31 39 44 49 47 49 50 37 34 34 34 29 23 19 18 21 21 19 20 18 19 29 32 30 29 28 23 23 23 24 26 26 26 25 24 25 27 24 24 24 19
45 38 32 31 34 43 46 46 40 33 31 30 28 26 21 18 14 16 16 15 17 13 18 26 31 34 33 31 26 25 23 22 23 23 27 27 26 26 27 25 23 25 18
50 47 38 32 32 35 36 32 30 27 26 24 25 23 19 15 12 15 16 15 15 13 16 20 26 30 33 33 29 26 25 27 22 21 22 23 27 28 24 24 27 26 22
45 46 42 39 35 31 30 33 31 25 20 21 20 18 17 15 17 19 20 20 20 22 22 21 22 27 27 28 27 30 28 27 26 24 23 21 22 28 30 27 27 27 24
52 51 48 41 37 33 34 36 31 20 18 18 20 16 15 18 22 27 23 25 26 26 29 30 31 30 32 30 30 31 32 33 28 28 30 28 29 29 32 28 26 27 31
61 57 55 43 42 43 38 38 34 26 25 22 21 22 22 22 26 25 27 28 34 34 38 36 36 38 37 36 37 33 35 35 36 32 33 33 33 33 33 33 32 32 30
71 68 57 47 43 46 45 40 37 35 33 28 32 34 30 27 26 21 26 27 24 27 27 33 40 41 43 41 40 40 39 38 38 39 37 38 40 39 38 38 42 41 34
57 63 51 42 41 40 44 49 48 40 33 32 33 40 35 25 22 21 18 18 23 23 24 25 28 31 34 37 42 44 43 41 43 47 45 46 45 47 46 48 46 42 44
18 27 33 34 33 34 35 26 22 18 17 29 33 33 32 32 22 21 21 22 29 26 27 29 32 31 34 37 41 46 49 51 52 53 55 60 51 55 59 55 49 50 52
14 21 34 38 38 34 30 24 21 19 26 28 23 21 26 24 24 23 24 26 30 25 30 35 34 32 33 32 36 45 50 54 58 56 61 62 59 60 69 56 57 49 43
27 31 41 40 31 20 12 14 22 32 28 16 20 22 20 17 17 19 22 20 22 25 28 29 32 35 35 36 38 40 45 45 49 53 54 50 52 57 56 61 47 43 38
30 29 25 16 10 5 15 12 11 13 14 18 17 20 21 22 24 21 21 24 26 27 30 31 37 40 38 32 34 39 46 53 55 52 59 54 49 44 49 51 47 35 28
17 14 11 8 12 19 7 7 13 13 13 13 12 12 8 11 19 22 23 24 31 31 33 39 42 40 40 36 36 39 43 45 51 48 49 48 44 45 43 49 36 29 27
20 19 19 17 17 17 16 15 18 22 19 18 21 24 23 18 11 23 28 31 35 41 45 45 44 41 39 31 33 38 42 49 47 49 49 44 46 38 41 37 30 26 26
13 11 11 14 16 16 19 23 26 27 31 33 32 32 42 56 45 40 23 26 30 48 47 54 55 52 46 45 38 37 43 49 50 46 46 40 39 36 34 32 31 27 26
13 10 8 10 12 16 20 25 28 28 29 30 34 38 45 46 45 52 52 47 57 53 55 61 53 43 46 50 45 48 48 50 51 42 41 33 28 29 28 28 23 23 24
17 16 12 10 9 9 12 13 17 20 23 24 21 21 26 31 38 44 41 58 53 52 54 50 55 54 44 41 49 51 47 50 45 37 30 25 26 27 30 24 18 22 26
16 14 12 10 11 14 17 16 13 20 27 26 29 29 34 35 37 42 47 54 55 51 55 48 44 44 55 44 48 51 55 49 37 37 31 29 30 34 32 27 27 24 23
15 15 17 17 15 14 12 17 27 27 22 21 23 24 27 40 49 55 56 48 52 53 58 64 48 46 39 38 47 48 49 48 34 37 32 32 31 33 29 24 21 19 23
20 21 22 21 19 19 19 19 21 26 28 22 27 33 39 43 48 48 41 40 38 36 41 46 48 48 49 45 44 42 40 32 31 39 36 29 27 29 27 23 17 24 25
Wind_Direction_500mb
244 232 215 209 215 207 204 207 224 219 229 236 233 229 239 254 258 259 264 287 283 274 274 277 267 254 274 216 220 223 237 237 236 240 221 230 238 234 248 250 251 254 271
231 222 217 215 210 207 202 210 216 227 234 254 252 248 254 252 251 254 271 284 285 270 268 267 249 281 215 215 232 237 238 241 241 234 222 225 237 237 245 256 240 250 255
223 207 220 216 216 208 209 216 230 236 253 269 263 268 262 261 267 265 267 278 286 264 245 248 238 250 234 230 241 254 248 238 229 219 224 224 228 222 232 248 241 245 250
217 209 204 212 219 211 217 229 235 241 250 251 258 262 272 281 265 267 255 273 286 257 222 241 231 248 265 270 246 254 250 228 226 225 225 235 245 227 245 244 232 243 255
178 190 209 210 214 211 218 223 229 242 239 243 253 260 270 267 273 251 257 271 283 243 215 228 228 247 266 260 241 248 251 232 230 234 238 241 243 239 248 250 230 240 255
177 185 189 205 208 207 212 220 219 238 231 239 245 255 261 274 257 265 270 271 288 241 215 222 224 240 238 247 245 244 247 241 241 242 236 244 243 249 246 247 246 243 243
191 192 191 189 201 201 208 216 224 233 233 236 243 242 257 270 271 284 299 286 299 255 243 230 227 230 237 244 247 247 252 249 251 243 238 239 239 249 257 256 259 254 250
201 198 186 176 183 196 206 215 224 224 222 223 224 237 251 252 276 303 298 292 304 271 242 239 233 234 245 251 254 250 250 247 240 242 243 246 246 250 250 248 261 264 257
201 190 177 179 184 192 198 201 203 208 215 219 220 221 234 249 271 291 290 283 282 285 256 246 244 245 252 256 253 254 249 249 241 250 245 243 247 248 248 246 269 262 270
202 197 191 192 191 191 192 196 203 211 218 219 222 232 244 248 257 268 277 277 271 267 266 263 256 253 255 255 253 251 246 250 247 253 248 245 255 253 253 262 261 264 260
216 211 207 207 208 205 205 210 213 219 243 247 239 239 251 263 263 269 267 270 269 271 270 268 268 264 262 256 257 251 248 256 252 259 254 256 256 252 258 256 251 258 273
227 228 221 215 220 221 225 228 230 243 259 259 250 258 265 264 267 270 273 269 282 287 272 267 264 266 268 267 260 259 258 261 259 266 258 266 256 254 258 250 252 263 273
233 230 230 221 229 234 235 245 249 255 256 265 272 273 269 263 265 278 281 276 291 290 286 268 264 265 268 264 263 262 261 265 270 267 266 269 259 262 260 257 254 259 273
241 235 236 230 235 243 243 247 247 246 250 262 267 273 272 260 271 284 283 267 286 293 301 291 281 275 266 261 259 262 267 268 272 270 269 268 261 260 258 255 258 262 261
213 226 222 215 227 225 218 209 204 219 260 275 269 268 277 279 282 283 272 274 276 285 288 286 287 286 278 273 267 261 268 271 273 276 275 277 270 258 254 257 251 258 261
133 183 189 191 188 184 196 219 269 292 278 265 265 271 275 278 292 293 279 271 276 275 292 295 292 294 286 280 278 274 270 269 270 271 278 277 279 271 263 260 250 256 262
145 155 166 172 173 190 245 281 289 281 269 284 270 280 268 279 300 305 295 289 288 290 294 285 283 282 277 281 283 290 284 281 277 276 280 278 280 276 263 256 246 256 262
147 150 155 165 193 212 303 300 298 288 301 312 293 276 280 295 302 311 311 309 308 314 313 310 301 296 287 279 283 285 290 285 277 274 275 276 267 271 275 255 245 252 238
150 158 174 207 262 275 272 274 301 278 260 268 244 240 267 305 321 325 328 327 318 316 315 315 315 304 294 289 291 290 292 304 293 280 273 270 271 268 261 244 245 244 230
191 208 230 238 244 254 266 269 291 282 276 264 249 238 230 249 327 346 334 336 328 313 307 308 318 311 297 300 291 296 298 301 293 282 273 269 273 269 251 238 227 218 227
195 218 245 251 251 253 269 278 289 296 296 296 281 275 286 298 284 277 302 326 326 321 316 313 310 301 298 293 298 301 303 305 295 287 275 266 268 247 231 224 214 233 255
204 215 231 239 253 269 281 287 293 297 303 306 304 310 306 294 300 296 292 292 287 289 300 308 309 310 295 297 290 297 297 294 288 286 275 259 239 222 210 200 225 246 257
207 197 212 239 257 279 303 313 310 305 309 313 316 325 325 316 313 302 283 298 294 293 298 296 299 305 303 298 298 302 300 296 286 276 257 222 211 194 196 208 226 259 256
203 209 217 228 267 293 302 305 306 316 319 316 317 321 325 331 330 323 317 312 300 292 295 314 317 301 295 299 295 294 301 298 278 257 227 214 208 202 210 218 236 261 256
241 257 269 282 280 273 270 300 314 314 309 313 316 321 314 316 318 316 305 305 296 301 302 295 304 311 303 296 293 296 295 299 276 244 217 210 208 203 221 243 248 256 259
279 279 279 285 276 282 288 298 297 300 310 311 318 318 320 322 320 321 318 323 324 315 312 302 298 296 295 300 298 297 297 278 261 227 213 211 220 228 240 253 250 261 261
Wind_Speed_850mb
19 22 30 33 39 57 60 53 42 44 39 33 42 43 41 39 37 33 28 30 24 20 20 22 18 17 28 16 23 22 22 22 24 15 29 32 25 25 19 15 12 7 8
37 22 40 39 40 60 60 56 49 47 42 39 40 37 40 41 39 31 31 29 26 23 18 20 22 25 17 19 20 24 26 28 29 27 24 27 28 29 30 31 27 18 18
39 32 37 46 45 64 62 56 48 43 39 37 34 34 30 32 30 30 30 27 26 25 20 23 19 17 15 14 17 21 23 30 27 27 23 13 17 21 24 34 34 31 27
23 30 30 35 44 56 59 52 46 40 42 36 33 34 31 25 26 27 25 24 26 23 28 28 29 22 19 15 18 19 19 25 27 27 26 21 16 12 10 16 35 36 35
24 26 22 22 32 43 42 45 44 40 43 34 32 36 34 30 26 22 24 23 20 21 30 29 31 28 27 22 18 19 18 19 28 30 25 24 20 19 18 17 24 27 28
31 28 26 33 41 46 54 48 50 33 34 35 35 35 29 23 21 21 21 20 16 18 28 34 37 31 26 26 23 22 22 22 23 26 29 24 27 24 21 24 22 22 17
38 32 31 39 44 49 47 49 50 37 34 34 34 29 23 19 18 21 21 19 20 18 19 29 32 30 29 28 23 23 23 24 26 26 26 25 24 25 27 24 24 24 19
45 38 32 31 34 43 46 46 40 33 31 30 28 26 21 18 14 16 16 15 17 13 18 26 31 34 33 31 26 25 23 22 23 23 27 27 26 26 27 25 23 25 18
50 47 38 32 32 35 36 32 30 27 26 24 25 23 19 15 12 15 16 15 15 13 16 20 26 30 33 33 29 26 25 27 22 21 22 23 27 28 24 24 27 26 22
45 46 42 39 35 31 30 33 31 25 20 21 20 18 17 15 17 19 20 20 20 22 22 21 22 27 27 28 27 30 28 27 26 24 23 21 22 28 30 27 27 27 24
52 51 48 41 37 33 34 36 31 20 18 18 20 16 15 18 22 27 23 25 26 26 29 30 31 30 32 30 30 31 32 33 28 28 30 28 29 29 32 28 26 27 31
61 57 55 43 42 43 38 38 34 26 25 22 21 22 22 22 26 25 27 28 34 34 38 36 36 38 37 36 37 33 35 35 36 32 33 33 33 33 33 33 32 32 30
71 68 57 47 43 46 45 40 37 35 33 28 32 34 30 27 26 21 26 27 24 27 27 33 40 41 43 41 40 40 39 38 38 39 37 38 40 39 38 38 42 41 34
57 63 51 42 41 40 44 49 48 40 33 32 33 40 35 25 22 21 18 18 23 23 24 25 28 31 34 37 42 44 43 41 43 47 45 46 45 47 46 48 46 42 44
18 27 33 34 33 34 35 26 22 18 17 29 33 33 32 32 22 21 21 22 29 26 27 29 32 31 34 37 41 46 49 51 52 53 55 60 51 55 59 55 49 50 52
14 21 34 38 38 34 30 24 21 19 26 28 23 21 26 24 24 23 24 26 30 25 30 35 34 32 33 32 36 45 50 54 58 56 61 62 59 60 69 56 57 49 43
27 31 41 40 31 20 12 14 22 32 28 16 20 22 20 17 17 19 22 20 22 25 28 29 32 35 35 36 38 40 45 45 49 53 54 50 52 57 56 61 47 43 38
30 29 25 16 10 5 15 12 11 13 14 18 17 20 21 22 24 21 21 24 26 27 30 31 37 40 38 32 34 39 46 53 55 52 59 54 49 44 49 51 47 35 28
17 14 11 8 12 19 7 7 13 13 13 13 12 12 8 11 19 22 23 24 31 31 33 39 42 40 40 36 36 39 43 45 51 48 49 48 44 45 43 49 36 29 27
20 19 19 17 17 17 16 15 18 22 19 18 21 24 23 18 11 23 28 31 35 41 45 45 44 41 39 31 33 38 42 49 47 49 49 44 46 38 41 37 30 26 26
13 11 11 14 16 16 19 23 26 27 31 33 32 32 42 56 45 40 23 26 30 48 47 54 55 52 46 45 38 37 43 49 50 46 46 40 39 36 34 32 31 27 26
13 10 8 10 12 16 20 25 28 28 29 30 34 38 45 46 45 52 52 47 57 53 55 61 53 43 46 50 45 48 48 50 51 42 41 33 28 29 28 28 23 23 24
17 16 12 10 9 9 12 13 17 20 23 24 21 21 26 31 38 44 41 58 53 52 54 50 55 54 44 41 49 51 47 50 45 37 30 25 26 27 30 24 18 22 26
16 14 12 10 11 14 17 16 13 20 27 26 29 29 34 35 37 42 47 54 55 51 55 48 44 44 55 44 48 51 55 49 37 37 31 29 30 34 32 27 27 24 23
15 15 17 17 15 14 12 17 27 27 22 21 23 24 27 40 49 55 56 48 52 53 58 64 48 46 39 38 47 48 49 48 34 37 32 32 31 33 29 24 21 19 23
20 21 22 21 19 19 19 19 21 26 28 22 27 33 39 43 48 48 41 40 38 36 41 46 48 48 49 45 44 42 40 32 31 39 36 29 27 29 27 23 17 24 25
Wind_Direction_850mb
244 232 215 209 215 207 204 207 224 219 229 236 233 229 239 254 258 259 264 287 283 274 274 277 267 254 274 216 220 223 237 237 236 240 221 230 238 234 248 250 251 254 271
231 222 217 215 210 207 202 210 216 227 234 254 252 248 254 252 251 254 271 284 285 270 268 267 249 281 215 215 232 237 238 241 241 234 222 225 237 237 245 256 240 250 255
223 207 220 216 216 208 209 216 230 236 253 269 263 268 262 261 267 265 267 278 286 264 245 248 238 250 234 230 241 254 248 238 229 219 224 224 228 222 232 248 241 245 250
217 209 204 212 219 211 217 229 235 241 250 251 258 262 272 281 265 267 255 273 286 257 222 241 231 248 265 270 246 254 250 228 226 225 225 235 245 227 245 244 232 243 255
178 190 209 210 214 211 218 223 229 242 239 243 253 260 270 267 273 251 257 271 283 243 215 228 228 247 266 260 241 248 251 232 230 234 238 241 243 239 248 250 230 240 255
177 185 189 205 208 207 212 220 219 238 231 239 245 255 261 274 257 265 270 271 288 241 215 222 224 240 238 247 245 244 247 241 241 242 236 244 243 249 246 247 246 243 243
191 192 191 189 201 201 208 216 224 233 233 236 243 242 257 270 271 284 299 286 299 255 243 230 227 230 237 244 247 247 252 249 251 243 238 239 239 249 257 256 259 254 250
201 198 186 176 183 196 206 215 224 224 222 223 224 237 251 252 276 303 298 292 304 271 242 239 233 234 245 251 254 250 250 247 240 242 243 246 246 250 250 248 261 264 257
201 190 177 179 184 192 198 201 203 208 215 219 220 221 234 249 271 291 290 283 282 285 256 246 244 245 252 256 253 254 249 249 241 250 245 243 247 248 248 246 269 262 270
202 197 191 192 191 191 192 196 203 211 218 219 222 232 244 248 257 268 277 277 271 267 266 263 256 253 255 255 253 251 246 250 247 253 248 245 255 253 253 262 261 264 260
216 211 207 207 208 205 205 210 213 219 243 247 239 239 251 263 263 269 267 270 269 271 270 268 268 264 262 256 257 251 248 256 252 259 254 256 256 252 258 256 251 258 273
227 228 221 215 220 221 225 228 230 243 259 259 250 258 265 264 267 270 273 269 282 287 272 267 264 266 268 267 260 259 258 261 259 266 258 266 256 254 258 250 252 263 273
233 230 230 221 229 234 235 245 249 255 256 265 272 273 269 263 265 278 281 276 291 290 286 268 264 265 268 264 263 262 261 265 270 267 266 269 259 262 260 257 254 259 273
241 235 236 230 235 243 243 247 247 246 250 262 267 273 272 260 271 284 283 267 286 293 301 291 281 275 266 261 259 262 267 268 272 270 269 268 261 260 258 255 258 262 261
213 226 222 215 227 225 218 209 204 219 260 275 269 268 277 279 282 283 272 274 276 285 288 286 287 286 278 273 267 261 268 271 273 276 275 277 270 258 254 257 251 258 261
133 183 189 191 188 184 196 219 269 292 278 265 265 271 275 278 292 293 279 271 276 275 292 295 292 294 286 280 278 274 270 269 270 271 278 277 279 271 263 260 250 256 262
145 155 166 172 173 190 245 281 289 281 269 284 270 280 268 279 300 305 295 289 288 290 294 285 283 282 277 281 283 290 284 281 277 276 280 278 280 276 263 256 246 256 262
147 150 155 165 193 212 303 300 298 288 301 312 293 276 280 295 302 311 311 309 308 314 313 310 301 296 287 279 283 285 290 285 277 274 275 276 267 271 275 255 245 252 238
150 158 174 207 262 275 272 274 301 278 260 268 244 240 267 305 321 325 328 327 318 316 315 315 315 304 294 289 291 290 292 304 293 280 273 270 271 268 261 244 245 244 230
191 208 230 238 244 254 266 269 291 282 276 264 249 238 230 249 327 346 334 336 328 313 307 308 318 311 297 300 291 296 298 301 293 282 273 269 273 269 251 238 227 218 227
195 218 245 251 251 253 269 278 289 296 296 296 281 275 286 298 284 277 302 326 326 321 316 313 310 301 298 293 298 301 303 305 295 287 275 266 268 247 231 224 214 233 255
204 215 231 239 253 269 281 287 293 297 303 306 304 310 306 294 300 296 292 292 287 289 300 308 309 310 295 297 290 297 297 294 288 286 275 259 239 222 210 200 225 246 257
207 197 212 239 257 279 303 313 310 305 309 313 316 325 325 316 313 302 283 298 294 293 298 296 299 305 303 298 298 302 300 296 286 276 257 222 211 194 196 208 226 259 256
203 209 217 228 267 293 302 305 306 316 319 316 317 321 325 331 330 323 317 312 300 292 295 314 317 301 295 299 295 294 301 298 278 257 227 214 208 202 210 218 236 261 256
241 257 269 282 280 273 270 300 314 314 309 313 316 321 314 316 318 316 305 305 296 301 302 295 304 311 303 296 293 296 295 299 276 244 217 210 208 203 221 243 248 256 259
279 279 279 285 276 282 288 298 297 300 310 311 318 318 320 322 320 321 318 323 324 315 312 302 298 296 295 300 298 297 297 278 261 227 213 211 220 228 240 253 250 261 261